When you browse on this site, cookies collect data to enhance your experience and personalize the content and advertising you see.
Visit our Privacy Policy to learn more. By continuing to use the site, you agree to this use of cookies and data.
  • In United Kingdom
  • List of Countries
  • For 7 days
  • Water Temperature
  • Satellite Maps
  • Weather Map
  • Weather Widgets
  • user-avatar
    Login

    Hourly Weather Boma

    Today, 24 March, Sunday

    Time Temperature Precipitation Wind Pressure Humidity
    00:00 +25°C° 0 mm 1 mps 699 mmHg 90%
    01:00 +24°C° 0 mm 1 mps 699 mmHg 91%
    02:00 +23°C° 0.7 mm 1 mps 699 mmHg 93%
    03:00 +23°C° 0.7 mm 1 mps 698 mmHg 94%
    04:00 +22°C° 0.7 mm 1 mps 698 mmHg 96%
    05:00 +22°C° 1.1 mm 1 mps 699 mmHg 96%
    06:00 +23°C° 1.1 mm 1 mps 699 mmHg 96%
    07:00 +23°C° 0 mm 1 mps 699 mmHg 95%
    08:00 +25°C° 0 mm 1 mps 700 mmHg 86%
    09:00 +27°C° 0 mm 1 mps 700 mmHg 76%
    10:00 +29°C° 0 mm 1 mps 700 mmHg 67%
    11:00 +31°C° 0 mm 1 mps 700 mmHg 58%
    12:00 +33°C° 0 mm 1 mps 700 mmHg 50%
    13:00 +35°C° 0 mm 1 mps 699 mmHg 43%
    14:00 +34°C° 0 mm 1 mps 699 mmHg 45%
    15:00 +34°C° 0 mm 1 mps 698 mmHg 48%
    16:00 +33°C° 0 mm 1 mps 697 mmHg 51%
    17:00 +31°C° 0 mm 1 mps 697 mmHg 57%
    18:00 +30°C° 0 mm 1 mps 697 mmHg 63%
    19:00 +28°C° 0 mm 1 mps 697 mmHg 70%
    20:00 +27°C° 0.3 mm 1 mps 698 mmHg 73%
    21:00 +27°C° 0.3 mm 2 mps 698 mmHg 77%
    22:00 +26°C° 0.3 mm 2 mps 699 mmHg 80%
    23:00 +25°C° 0.4 mm 2 mps 699 mmHg 83%

    Tomorrow, 25 March, Monday

    Time Temperature Precipitation Wind Pressure Humidity
    00:00 +25°C° 0.4 mm 2 mps 699 mmHg 86%
    01:00 +24°C° 0.4 mm 1 mps 699 mmHg 90%
    02:00 +24°C° 0.1 mm 1 mps 699 mmHg 90%
    03:00 +24°C° 0.1 mm 1 mps 699 mmHg 91%
    04:00 +23°C° 0.1 mm 1 mps 698 mmHg 92%
    05:00 +23°C° 0 mm 1 mps 699 mmHg 92%
    06:00 +24°C° 0 mm 1 mps 699 mmHg 91%
    07:00 +24°C° 0 mm 1 mps 700 mmHg 91%
    08:00 +24°C° 0 mm 1 mps 700 mmHg 86%
    09:00 +25°C° 0 mm 1 mps 701 mmHg 82%
    10:00 +26°C° 0 mm 2 mps 702 mmHg 78%
    11:00 +28°C° 0 mm 2 mps 701 mmHg 71%
    12:00 +29°C° 0 mm 2 mps 701 mmHg 65%
    13:00 +31°C° 0 mm 2 mps 700 mmHg 58%
    14:00 +30°C° 0.6 mm 2 mps 699 mmHg 61%
    15:00 +30°C° 0.6 mm 2 mps 699 mmHg 64%
    16:00 +30°C° 0.6 mm 2 mps 698 mmHg 67%
    17:00 +29°C° 0 mm 1 mps 698 mmHg 72%
    18:00 +27°C° 0 mm 1 mps 698 mmHg 76%
    19:00 +26°C° 0 mm 1 mps 698 mmHg 81%
    20:00 +25°C° 0 mm 1 mps 698 mmHg 83%
    21:00 +25°C° 0 mm 1 mps 699 mmHg 85%
    22:00 +24°C° 0 mm 1 mps 699 mmHg 86%
    23:00 +24°C° 0 mm 1 mps 699 mmHg 88%

    Day after tomorrow, 26 March, Tuesday

    Time Temperature Precipitation Wind Pressure Humidity
    00:00 +24°C° 0 mm 1 mps 699 mmHg 89%
    01:00 +23°C° 0 mm 1 mps 699 mmHg 91%
    02:00 +23°C° 0 mm 1 mps 699 mmHg 93%
    03:00 +22°C° 0 mm 1 mps 698 mmHg 96%
    04:00 +20°C° 0 mm 0 mps 698 mmHg 98%
    05:00 +22°C° 0 mm 1 mps 699 mmHg 95%
    06:00 +23°C° 0 mm 1 mps 699 mmHg 92%
    07:00 +23°C° 0 mm 1 mps 700 mmHg 89%
    08:00 +24°C° 0 mm 1 mps 701 mmHg 85%
    09:00 +25°C° 0 mm 1 mps 701 mmHg 81%
    10:00 +25°C° 0 mm 1 mps 702 mmHg 77%
    11:00 +27°C° 0 mm 1 mps 701 mmHg 70%
    12:00 +29°C° 0 mm 1 mps 700 mmHg 63%
    13:00 +31°C° 0 mm 1 mps 700 mmHg 56%
    14:00 +32°C° 0 mm 1 mps 699 mmHg 52%
    15:00 +33°C° 0 mm 1 mps 699 mmHg 47%
    16:00 +34°C° 0 mm 1 mps 698 mmHg 42%
    17:00 +31°C° 0 mm 1 mps 698 mmHg 48%
    18:00 +27°C° 0 mm 0 mps 698 mmHg 54%
    19:00 +25°C° 0 mm 0 mps 699 mmHg 60%
    20:00 +24°C° 0 mm 0 mps 699 mmHg 63%
    21:00 +23°C° 0 mm 0 mps 700 mmHg 66%
    22:00 +23°C° 0 mm 0 mps 700 mmHg 69%
    23:00 +22°C° 0 mm 0 mps 700 mmHg 72%

    27 March, Wednesday

    Time Temperature Precipitation Wind Pressure Humidity
    00:00 +22°C° 0 mm 0 mps 700 mmHg 75%
    01:00 +21°C° 0 mm 0 mps 700 mmHg 78%
    02:00 +21°C° 0 mm 0 mps 699 mmHg 81%
    03:00 +21°C° 0 mm 0 mps 699 mmHg 83%
    04:00 +20°C° 0 mm 0 mps 699 mmHg 85%
    05:00 +21°C° 0 mm 0 mps 699 mmHg 85%
    06:00 +21°C° 0 mm 0 mps 700 mmHg 86%
    07:00 +21°C° 0 mm 0 mps 700 mmHg 87%
    08:00 +25°C° 0 mm 0 mps 701 mmHg 74%
    09:00 +28°C° 0 mm 0 mps 702 mmHg 62%
    10:00 +33°C° 0 mm 1 mps 703 mmHg 49%
    11:00 +33°C° 0 mm 0 mps 702 mmHg 43%
    12:00 +35°C° 0 mm 0 mps 702 mmHg 37%
    13:00 +36°C° 0 mm 0 mps 701 mmHg 31%
    14:00 +36°C° 0 mm 1 mps 700 mmHg 37%
    15:00 +34°C° 0 mm 1 mps 699 mmHg 43%
    16:00 +31°C° 0 mm 1 mps 698 mmHg 50%
    17:00 +30°C° 0 mm 1 mps 698 mmHg 54%
    18:00 +29°C° 0 mm 1 mps 699 mmHg 59%
    19:00 +27°C° 0 mm 1 mps 699 mmHg 64%
    20:00 +26°C° 0 mm 1 mps 699 mmHg 68%
    21:00 +26°C° 0 mm 1 mps 700 mmHg 72%
    22:00 +25°C° 0 mm 1 mps 700 mmHg 75%
    23:00 +23°C° 0 mm 0 mps 700 mmHg 77%

    28 March, Thursday

    Time Temperature Precipitation Wind Pressure Humidity
    00:00 +22°C° 0 mm 0 mps 700 mmHg 78%
    01:00 +22°C° 0 mm 0 mps 700 mmHg 80%
    02:00 +22°C° 0 mm 0 mps 700 mmHg 82%
    03:00 +22°C° 0 mm 0 mps 700 mmHg 83%
    04:00 +21°C° 0 mm 0 mps 699 mmHg 85%
    05:00 +22°C° 0 mm 0 mps 700 mmHg 84%
    06:00 +22°C° 0 mm 0 mps 701 mmHg 83%
    07:00 +22°C° 0 mm 0 mps 701 mmHg 82%
    08:00 +25°C° 0 mm 0 mps 702 mmHg 71%
    09:00 +30°C° 0 mm 1 mps 702 mmHg 59%
    10:00 +34°C° 0 mm 1 mps 703 mmHg 47%
    11:00 +35°C° 0 mm 1 mps 702 mmHg 43%
    12:00 +35°C° 0 mm 0 mps 702 mmHg 38%
    13:00 +37°C° 0 mm 0 mps 701 mmHg 33%
    14:00 +37°C° 0 mm 1 mps 700 mmHg 38%
    15:00 +35°C° 0 mm 1 mps 699 mmHg 42%
    16:00 +33°C° 0 mm 1 mps 698 mmHg 47%
    17:00 +31°C° 8 mm 2 mps 698 mmHg 62%
    18:00 +28°C° 8 mm 2 mps 698 mmHg 77%
    19:00 +25°C° 8 mm 3 mps 698 mmHg 92%
    20:00 +25°C° 4.6 mm 2 mps 699 mmHg 93%
    21:00 +25°C° 4.6 mm 1 mps 700 mmHg 95%
    22:00 +23°C° 4.6 mm 0 mps 701 mmHg 96%
    23:00 +23°C° 0.2 mm 0 mps 701 mmHg 96%

    29 March, Friday

    Time Temperature Precipitation Wind Pressure Humidity
    00:00 +22°C° 0.2 mm 0 mps 700 mmHg 96%
    01:00 +22°C° 0.2 mm 0 mps 700 mmHg 97%
    02:00 +22°C° 1.2 mm 0 mps 700 mmHg 97%
    03:00 +22°C° 1.2 mm 0 mps 699 mmHg 97%
    04:00 +21°C° 1.2 mm 0 mps 699 mmHg 97%
    05:00 +22°C° 0.3 mm 0 mps 700 mmHg 97%
    06:00 +22°C° 0.3 mm 0 mps 700 mmHg 96%
    07:00 +22°C° 0.3 mm 0 mps 701 mmHg 96%
    08:00 +24°C° 0 mm 0 mps 701 mmHg 85%
    09:00 +28°C° 0 mm 1 mps 701 mmHg 74%
    10:00 +31°C° 0 mm 1 mps 702 mmHg 64%
    11:00 +33°C° 0 mm 1 mps 701 mmHg 56%
    12:00 +34°C° 0 mm 0 mps 700 mmHg 47%
    13:00 +36°C° 0 mm 0 mps 700 mmHg 39%
    14:00 +35°C° 0 mm 0 mps 699 mmHg 40%
    15:00 +34°C° 0 mm 0 mps 699 mmHg 40%
    16:00 +34°C° 0 mm 0 mps 698 mmHg 41%
    17:00 +32°C° 0 mm 0 mps 698 mmHg 47%
    18:00 +30°C° 0 mm 0 mps 698 mmHg 53%
    19:00 +28°C° 0 mm 0 mps 698 mmHg 59%
    20:00 +27°C° 0.1 mm 0 mps 699 mmHg 62%
    21:00 +27°C° 0.1 mm 0 mps 699 mmHg 65%
    22:00 +26°C° 0.1 mm 0 mps 699 mmHg 67%
    23:00 +26°C° 0.4 mm 0 mps 699 mmHg 71%
    Show more